sat.trackr.live / text

‹ back to catalog

STARLINK-5491

NORAD 55332 · 2023-013B

PAYLOAD ACTIVE UNKNOWN

§ Identity

Operator
Country
US
Launch date
2023-01-26
Launch site
AFETR
Launch vehicle
Mass (kg)
RCS (m²)

Purposes: comms

External: N2YO · Heavens-Above · Gunter

§ Orbital elements

Epoch: 2026-05-25T05:13:57.295200Z

Period
94.27 min
Inclination
42.9971°
Eccentricity
0.0000255
Mean motion
15.27600926 rev/d
Perigee alt
482.8 km
Apogee alt
483.2 km
Semi-major
6,861.1 km
B*
1.1896e-4
RAAN
216.8176°
Arg perigee
311.2445°
Mean anomaly
48.8385°
Rev number
18,354

§ Raw data

STARLINK-54911 55332U 23013B   26145.21802425  .00003015  00000+0  11896-3 0  99952 55332  42.9971 216.8176 0000255 311.2445  48.8385 15.27600926183540

JSON: /api/v1/satellites/55332 · /tle

For live sub-satellite position, see the globe view (requires WebGL).

§ Visibility from observer

Set your observer location to see the next 7 days of passes ≥ 10°. The values pass through the URL so the page stays shareable.

No JS? Fill the form by hand. The geolocation button needs JavaScript.